Weather in Voronovo

Russia / Oryol Oblast     52°22′14″N   36°55′44″E
temp.,
°C
wind,
m/s
gust,
m/s
humid.,
%
clouds,
%
prec.,
mm/h
press.,
hPa
HPBL,
m
17 april, sat
sat1700:00+7sse33820 0.0 101846
03:00+6e228596 0.0 101812
06:00+6s4786100 0.4 1019230
09:00+6sw3491100 4.5 1018222
12:00+6w2287100 4.1 1019312
15:00+8sw127799 4.1 1018668
18:00+8sw3576100 0.0 1017580
21:00+6nnw228973 0.6 101842
18 april, sun
sun1800:00+5se22905 0.2 101812
03:00+4sw239280 0.2 101847
06:00+4wsw129252 0.0 101816
09:00+8se227240 0.4 1018422
12:00+10s4459100 0.8 10181198
15:00+10ssw5456100 1.2 10181231
18:00+6s5582100 0.5 1019524
21:00+6sse2388100 1.2 1019201
19 april, mon
mon1900:00+5se3492100 2.5 1019691
03:00+6ese4794100 5.5 1018647
06:00+5e4793100 2.9 1018434
09:00+6ese4691100 3.4 1018608
12:00+8se468198 0.8 1018781
15:00+9e3686100 3.9 1017410
18:00+10e5976100 3.7 1017529
21:00+8e8129099 5.6 1018596
20 april, tue
tue2000:00+5ene8129399 0.1 1018514
03:00+5e61192100 0.2 1018537
06:00+4e61194100 0.0 1017555
09:00+5ene81286100 0.0 1015667
12:00+7ene81487100 0.0 1012762
15:00+6ene101592100 2.7 1007827
18:00+5ene111894100 13.9 1002959
21:00+7e81696100 23.0 996642
21 april, wed
wed2100:00+10sse7149090 0.9 996732
03:00+9sse9158696 1.1 996919
06:00+8sse61194100 0.4 9961205
09:00+2sw81396100 1.4 1001829
12:00+3sw101596100 0.3 10051000
15:00+5wsw91486100 0.3 10101261
18:00+7sw51082100 0.1 10131020
21:00+5ssw51188100 0.2 1017338